Retour au catalogue

COSMOS 1818 COOLANT

LostLEO
NORAD 50789·DEBRIS·🇷🇺 Russia

Lancé Feb 1, 1987 depuis Baikonur Cosmodrome

Loading…

Prochains Passages (prochaines 24 heures)

TLE

PériméSource: Space-Track

Époque: Apr 19, 2024, 23:50 UTC

1 50789U 87011BE  24110.99362446  .00003014  00000-0  10600-2 0  9994
2 50789  65.0116 238.3923 0021719 276.6585 199.5124 14.36304060717372

Suivez COSMOS 1818 COOLANT en temps réel avec AllMySat

Download on the App Store